SCP
0 0 0 0 0 0 0 0 0 0 0 0 0 0 0 1 1 1 1 1 1 1 1 1 1 1 1 1 1 1 1 1 1 1 1 1 1 1 1 1 1 1 1 1
0 0 0 0 0 0 0 0 0 0 0 0 0 0 0 1 1 1 1 1 1 1 2 2 2 2 1 1 1 1 1 1 1 1 1 1 1 1 1 1 1 1 1 1
0 0 0 0 0 0 0 0 0 0 0 0 0 0 0 1 1 1 1 1 1 2 2 2 2 2 2 2 2 2 2 2 1 1 1 1 1 1 1 1 1 1 1 0
0 0 0 0 0 0 0 0 0 0 0 0 0 0 1 1 1 1 1 1 1 1 2 2 2 2 2 2 2 2 2 1 1 1 1 1 1 1 1 1 1 1 1 0
0 0 0 0 0 0 0 0 0 0 0 0 0 0 0 1 1 1 1 1 1 1 1 1 1 2 2 2 2 2 1 1 1 1 1 1 1 1 1 1 1 1 0 0
0 0 0 0 0 0 0 0 0 0 0 0 0 0 1 1 1 1 1 1 1 1 1 1 1 2 2 2 2 1 1 1 1 1 1 1 1 1 1 1 1 1 0 0
0 0 0 0 0 0 0 0 0 0 1 1 1 1 1 1 1 1 1 1 1 1 1 2 2 2 2 2 2 1 1 1 1 1 1 1 1 1 1 1 1 1 0 0
0 0 0 0 0 0 1 1 1 1 1 1 1 1 1 1 1 1 1 1 1 2 2 2 2 2 2 2 2 1 1 1 1 1 1 1 1 1 1 1 1 1 0 0
0 0 0 0 0 1 1 1 0 0 0 1 1 1 1 1 2 2 2 2 2 2 2 2 2 2 2 2 1 1 1 1 1 1 1 1 1 1 1 1 1 0 0 0
0 0 0 0 0 0 0 0 0 0 0 0 1 1 1 2 2 2 2 2 2 2 2 2 2 2 2 2 2 1 1 1 1 1 1 1 1 1 1 0 0 0 0 0
0 0 0 0 0 0 0 0 0 0 0 0 1 1 1 2 2 2 2 2 2 2 2 2 2 2 2 2 2 1 1 1 1 1 1 1 1 1 0 0 0 0 0 0
0 0 0 0 0 0 0 0 0 0 0 0 1 1 1 1 1 1 2 2 2 2 2 2 2 2 2 2 2 2 1 1 1 1 1 1 1 1 0 0 0 0 0 0
0 0 0 0 0 0 0 0 0 0 0 0 1 1 1 1 1 1 1 1 2 2 2 2 2 2 2 2 2 2 1 1 1 0 0 0 0 0 0 0 0 0 0 0
0 0 0 0 0 0 0 0 0 0 0 0 1 1 1 1 1 1 1 1 1 1 1 1 1 1 1 2 2 1 1 1 1 0 0 0 0 0 0 0 0 0 0 0
0 0 0 0 0 0 0 0 0 0 0 1 1 1 1 1 1 1 1 1 1 1 1 1 1 1 1 1 1 1 1 1 1 0 0 0 0 0 0 0 0 0 0 0
0 0 0 0 0 0 0 0 0 0 0 0 1 1 1 1 1 1 1 1 1 1 1 1 1 1 1 1 1 1 1 1 0 0 0 0 0 0 0 0 0 0 0 0
0 0 0 0 0 0 0 0 0 0 0 0 1 1 1 1 1 1 1 1 1 1 1 1 1 1 1 1 1 1 1 1 0 0 0 0 0 0 0 0 0 0 0 0
0 0 0 0 0 0 0 0 0 0 1 1 1 1 1 1 1 1 1 1 1 1 1 1 1 1 1 1 1 1 1 0 0 0 0 0 0 0 0 0 0 0 0 0
0 0 0 0 0 0 0 0 0 1 1 1 1 1 1 1 1 1 1 1 1 1 1 1 1 1 1 1 1 1 0 0 0 0 0 0 0 0 0 0 0 0 0 0
0 0 0 0 0 0 0 0 0 0 1 1 1 1 1 1 1 1 1 1 1 1 1 1 1 1 0 0 0 0 0 0 0 0 0 0 0 0 0 0 0 0 0 0
0 0 0 0 0 0 0 0 0 0 0 1 1 1 1 1 1 1 1 1 1 1 1 1 0 0 0 0 0 0 0 0 0 0 0 0 0 0 0 0 0 0 0 0
0 0 0 0 0 0 0 0 0 0 0 0 0 0 1 1 1 1 1 1 1 1 1 0 0 0 0 0 0 0 0 0 0 0 0 0 0 0 0 0 0 0 0 0
0 0 0 0 0 0 0 0 0 0 0 0 0 0 0 0 0 0 0 0 0 0 0 0 0 0 0 0 0 0 0 0 0 0 0 0 0 0 0 0 0 0 0 0
0 0 0 0 0 0 0 0 1 1 0 0 0 0 0 0 0 0 0 0 0 0 0 0 0 0 0 0 0 0 0 0 0 0 0 0 0 0 0 0 0 0 0 0
0 0 0 0 0 0 0 0 0 0 0 0 0 0 0 0 0 0 0 0 0 0 0 0 0 0 0 0 0 0 0 0 0 0 0 0 0 0 0 0 0 0 0 0
0 0 0 0 0 0 0 0 0 0 0 0 0 0 0 0 0 0 0 0 0 0 0 0 0 0 0 0 0 0 0 0 0 0 0 0 0 0 0 0 0 0 0 0
0 0 0 0 0 0 0 0 0 0 0 0 0 0 0 0 0 0 0 0 0 0 0 0 0 0 0 0 0 0 0 0 0 0 0 0 0 0 0 0 0 0 0 0
Wind_Speed
11 8 7 9 9 9 7 8 8 3 2 4 5 4 5 7 7 6 6 6 6 6 6 6 6 5 4 3 2 3 3 3 3 2 2 1 1 1 0 0 1 1 1 1
10 9 9 10 10 9 7 6 6 3 1 3 6 5 4 5 6 6 5 5 6 6 6 6 6 5 4 3 3 3 2 3 2 3 2 2 1 1 1 1 1 1 1 2
11 9 11 11 9 8 6 4 5 3 1 4 6 6 5 4 6 6 6 6 6 5 4 5 5 4 4 4 4 3 2 2 2 2 2 2 2 2 1 1 1 1 1 2
10 10 13 8 5 5 4 2 3 1 2 3 5 6 5 4 5 5 7 6 5 4 4 4 5 5 4 4 4 3 2 2 2 2 2 2 2 2 2 2 1 1 1 1
8 10 11 7 6 5 3 1 1 2 1 4 5 5 5 3 6 7 7 6 4 4 4 4 4 4 4 4 3 3 2 2 2 1 1 2 2 2 2 1 1 1 1 1
9 11 11 6 4 2 2 2 2 2 3 3 4 2 3 4 5 5 7 5 4 4 4 4 3 4 3 3 3 2 2 2 2 1 1 1 2 2 1 1 2 2 1 1
12 12 8 4 4 4 4 1 4 5 3 2 3 2 3 6 6 4 6 6 5 5 4 4 4 3 2 2 2 1 1 2 2 2 1 1 1 1 1 2 2 2 1 1
10 12 6 2 1 1 4 5 4 3 3 4 4 3 3 6 6 4 6 5 5 5 4 4 4 3 2 2 2 2 1 1 2 1 1 1 2 2 2 2 2 2 2 2
3 2 2 5 5 6 5 5 4 3 3 3 3 2 4 5 5 4 5 4 3 4 4 4 3 2 2 2 2 2 1 1 1 1 1 1 2 3 3 3 3 3 2 2
1 2 2 5 7 5 4 4 3 2 2 1 1 3 5 4 4 4 4 3 2 3 4 3 3 2 2 2 2 1 1 1 1 2 3 2 2 3 3 2 2 2 2 2
2 1 1 4 5 5 4 3 2 2 1 0 0 2 4 3 3 3 3 3 2 2 2 3 3 2 2 2 2 1 1 1 2 2 2 2 2 1 2 1 1 1 1 1
2 0 0 3 3 3 3 3 3 2 2 2 2 3 3 3 3 3 3 2 2 2 2 2 3 2 2 2 2 1 1 2 2 2 2 2 2 2 1 2 3 3 2 0
2 3 3 3 3 3 2 2 1 1 1 2 2 2 3 4 3 2 2 2 2 1 1 1 2 2 2 2 1 1 2 2 2 2 2 2 2 3 2 2 2 3 4 4
4 3 3 2 3 3 2 1 2 2 2 3 2 3 3 3 3 2 2 1 1 1 1 1 1 1 1 2 2 2 3 3 3 3 3 3 2 2 2 2 2 3 5 7
2 1 0 0 0 1 1 0 1 1 1 2 2 2 2 2 2 2 1 1 1 1 1 1 1 1 1 1 1 2 3 2 2 3 3 3 3 3 3 2 2 2 2 3
4 2 2 2 2 2 2 2 1 1 1 2 2 2 2 2 2 1 1 1 1 1 1 1 1 1 1 1 2 3 3 4 4 3 4 3 3 3 2 2 2 2 1 1
4 4 3 3 3 3 2 1 0 0 1 1 2 2 2 1 1 1 1 1 1 1 1 1 1 0 1 2 3 3 3 3 3 3 4 3 3 3 2 2 2 2 1 1
4 4 3 2 2 1 1 1 0 1 1 0 1 1 1 1 0 0 1 1 1 1 1 1 1 1 2 2 2 3 3 2 2 3 2 2 3 3 2 2 2 2 1 2
2 2 3 2 2 1 0 0 1 2 2 1 1 1 1 1 0 1 1 1 2 2 1 0 1 3 3 2 3 3 4 3 2 1 2 1 2 3 3 2 2 3 2 1
3 2 2 1 1 1 0 1 1 1 1 1 1 1 1 1 1 1 1 2 1 1 0 0 2 3 3 1 2 3 3 2 1 0 1 2 2 3 3 3 3 2 2 2
3 3 1 1 1 1 0 1 1 1 1 0 0 1 1 1 2 1 2 3 1 1 1 1 2 2 2 1 3 4 3 3 2 1 1 2 2 2 2 2 2 2 2 2
1 1 1 1 1 1 1 0 1 1 0 1 1 1 2 2 3 2 2 2 2 1 1 2 1 0 1 3 4 4 3 3 2 1 1 1 2 2 2 2 1 2 2 2
1 0 1 1 1 1 1 1 1 1 1 2 2 2 3 3 2 2 2 1 1 0 2 1 1 1 1 3 4 3 3 2 2 2 2 1 1 1 1 1 1 2 2 2
1 1 1 2 2 2 2 2 1 1 2 3 3 3 3 3 2 2 1 1 0 1 1 1 1 2 3 3 4 3 2 2 1 2 2 1 1 1 1 1 1 2 2 2
2 2 3 3 4 3 3 3 3 3 3 2 2 2 2 1 1 1 1 1 1 1 1 2 3 3 3 3 3 2 2 2 2 2 2 2 1 1 1 1 2 2 2 2
2 3 2 3 3 2 3 3 3 2 3 2 2 1 0 0 0 0 0 0 0 1 1 1 2 2 2 2 1 2 2 1 1 2 2 2 2 2 2 2 3 2 2 2
3 2 2 3 2 2 2 1 1 2 1 1 1 0 0 0 0 0 0 1 0 1 1 1 1 1 1 2 1 1 2 2 2 2 1 1 2 1 2 2 2 2 2 2
Wind_Direction
268 261 255 261 266 264 258 270 281 283 191 162 138 128 121 119 126 131 133 133 126 127 133 133 133 133 134 146 138 135 141 143 143 142 127 137 141 127 73 6 35 52 55 32
268 267 260 259 257 260 260 265 267 262 262 119 114 107 109 126 131 127 124 117 121 131 130 137 141 144 144 142 130 125 137 138 135 139 146 157 152 156 118 70 56 56 46 44
270 262 261 257 255 255 265 288 289 288 122 123 124 123 135 137 139 138 131 124 126 128 133 140 143 143 147 150 146 151 156 146 150 156 161 169 189 156 148 147 156 167 96 83
267 266 261 272 277 268 259 301 328 346 137 122 121 113 119 136 138 127 119 118 119 131 135 136 142 149 149 152 148 155 151 154 170 179 173 179 179 174 174 175 185 177 130 130
264 261 256 253 257 253 236 271 304 270 152 114 119 123 113 124 119 121 120 121 128 135 134 131 141 141 144 155 148 153 157 163 163 174 186 200 193 190 194 184 188 202 201 176
253 262 262 256 262 275 253 221 57 53 58 86 106 125 117 118 102 111 118 119 117 114 115 117 119 126 140 152 156 167 167 161 154 158 183 209 195 191 195 195 222 218 179 166
250 256 259 278 273 250 248 101 60 53 46 70 79 77 118 118 104 102 107 116 111 106 108 110 110 119 141 134 125 114 132 142 141 161 198 181 156 159 189 213 232 231 198 209
248 255 251 359 311 20 70 67 62 62 53 60 63 83 100 107 111 121 110 109 110 103 103 102 105 115 120 104 93 82 87 115 128 160 230 152 141 175 209 219 230 227 223 227
236 257 66 72 76 82 83 72 50 39 57 66 83 113 113 114 118 116 110 109 112 114 109 104 111 130 130 111 102 94 95 117 162 191 211 170 191 199 211 215 229 226 215 224
216 150 108 81 78 69 66 66 52 50 52 72 137 138 128 127 117 119 113 124 133 125 127 127 133 133 122 118 116 125 157 188 198 203 209 202 215 214 222 225 233 241 238 244
266 267 119 107 86 72 53 53 45 74 65 36 95 111 119 114 112 117 124 130 122 125 131 130 125 120 118 122 133 162 195 217 221 221 217 208 204 237 246 248 242 257 305 319
247 137 202 85 75 101 89 60 30 37 53 55 67 104 115 114 107 103 105 102 104 109 119 127 131 127 121 128 139 172 225 238 241 238 226 226 209 209 145 152 137 143 156 190
12 32 64 71 51 51 63 93 93 50 47 93 100 111 112 107 107 98 103 116 120 123 110 109 124 130 138 147 157 202 239 248 266 265 248 242 239 225 196 175 206 218 214 208
36 37 37 36 24 16 17 45 70 50 50 65 75 90 96 104 105 103 106 119 119 111 105 117 135 145 152 163 192 234 247 245 261 269 269 255 249 244 228 216 212 215 214 216
339 337 265 231 258 303 319 352 105 96 77 77 82 92 101 101 101 105 117 130 131 152 170 179 189 188 177 202 216 251 263 265 270 285 284 278 268 255 247 232 237 233 187 200
296 273 225 209 212 232 253 245 220 202 133 108 111 110 109 114 118 123 113 122 169 200 190 191 216 218 210 247 251 252 250 255 258 274 276 276 277 277 272 261 252 251 239 206
270 275 259 234 227 222 237 258 269 30 98 128 134 132 127 119 125 125 177 195 193 211 194 193 217 224 234 244 261 267 265 244 236 266 280 289 294 294 296 291 283 282 278 192
255 267 271 270 256 235 248 297 74 70 93 116 129 115 128 147 150 202 241 256 247 230 199 173 175 234 241 246 266 275 276 270 247 259 275 301 311 308 302 290 276 272 232 214
252 259 253 268 289 287 322 27 61 59 59 59 97 144 137 94 14 309 272 250 244 235 219 170 226 247 243 219 260 266 271 278 283 287 307 301 271 285 287 286 288 285 274 243
243 261 272 272 276 271 99 78 67 55 46 45 26 358 1 23 354 316 296 273 267 285 251 286 256 265 271 256 265 271 273 273 273 294 287 280 277 280 287 290 290 292 298 289
225 226 232 262 305 322 41 112 97 98 96 102 268 279 299 304 289 284 279 276 274 315 286 211 239 266 288 290 254 260 266 267 262 237 239 267 282 288 298 314 322 318 306 301
206 200 198 218 243 285 317 274 160 166 195 253 259 273 282 280 275 267 260 266 264 191 251 255 247 341 306 266 259 263 263 266 268 276 272 266 275 291 306 317 313 302 301 311
34 77 248 266 275 274 273 243 208 198 221 245 255 258 264 276 276 270 265 274 301 310 281 313 65 130 253 267 273 273 278 284 292 300 297 289 285 306 313 312 304 302 307 307
331 290 265 258 258 249 248 242 237 221 225 235 241 241 247 257 265 267 280 145 357 314 306 100 155 207 248 265 276 284 289 292 303 303 300 309 314 332 322 328 316 307 307 318
296 280 256 244 238 231 231 231 230 234 240 241 243 244 247 253 297 338 26 66 72 287 266 182 190 223 252 272 281 299 319 335 335 323 322 325 326 344 356 339 325 319 326 328
277 270 273 266 262 249 239 236 234 232 233 237 239 232 248 187 238 199 183 170 199 268 279 212 194 220 259 283 307 328 332 337 310 301 322 330 341 352 360 347 335 340 337 323
258 257 252 254 254 264 266 262 262 260 252 250 263 214 173 246 213 238 317 325 319 302 325 342 333 313 314 321 337 1 351 339 327 324 331 337 338 355 2 1 3 351 342 343